Madison, SD

10:05 PM CDT on April 27, 2017 (GMT -0500)
Madison Municipal

Weather History for KMDS - July, 2013

Change the Weather History Date:

Thursday, July 11, 2013

  Actual Average Record
Temperature  
Mean Temperature 71 °F -  
Max Temperature 82 °F 84 °F 86 °F (2015)
Min Temperature 60 °F 62 °F 59 °F (2010)
Cooling Degree Days 6    
Growing Degree Days 21 (Base 50)    
Moisture  
Dew Point 61 °F    
Average Humidity 70    
Maximum Humidity 100    
Minimum Humidity 51    
Precipitation  
Precipitation 0.00 in - - ()
Sea Level Pressure  
Sea Level Pressure 30.02 in    
Wind  
Wind Speed 11 mph (SSE)    
Max Wind Speed 23 mph    
Max Gust Speed 30 mph    
Visibility 10 miles    
Events      
Averages and records for this station are not official NWS values.
T = Trace of Precipitation, MM = Missing Value Source: NWS Daily Summary

Daily Weather History Graph

Daily Weather History Graph

Search for Another Location

Airport or City:

Trip Planner

Search our weather history database for the weather conditions in past years. The results will help you decide how hot, cold, wet, or windy it might be!

Date:

Astronomy

Jul. 11, 2013 Rise Set
Actual Time 5:56 AM CDT 9:11 PM CDT
Civil Twilight 5:20 AM CDT 9:46 PM CDT
Nautical Twilight 4:35 AM CDT 10:32 PM CDT
Astronomical Twilight 3:38 AM CDT 11:27 PM CDT
Moon 9:24 AM CDT (7/11) 10:42 PM CDT (7/11)
Length of Visible Light 16h 25m
Length of Day
15h 14m
Waxing Crescent, 11% of the Moon is Illuminated
Jul 11
Waxing Crescent
Jul 15
First Quarter
Jul 22
Full
Jul 29
Last Quarter
Aug 6
New

Hourly Weather History & Observations

Time (CDT) Temp. Heat Index Dew Point Humidity Pressure Visibility Wind Dir Wind Speed Gust Speed Precip Events Conditions
12:10 AM 64.4 °F - 62.6 °F 94% 30.09 in 10.0 mi Calm Calm - N/A   Partly Cloudy
12:30 AM 64.4 °F - 62.6 °F 94% 30.08 in 10.0 mi SSE 3.5 mph - N/A   Partly Cloudy
12:50 AM 62.6 °F - 62.6 °F 100% 30.08 in 10.0 mi East 3.5 mph - N/A   Scattered Clouds
1:10 AM 62.6 °F - 62.6 °F 100% 30.08 in 10.0 mi East 4.6 mph - N/A   Mostly Cloudy
1:30 AM 62.6 °F - 62.6 °F 100% 30.08 in 10.0 mi ESE 3.5 mph - N/A   Mostly Cloudy
1:50 AM 60.8 °F - 60.8 °F 100% 30.08 in 10.0 mi ESE 3.5 mph - N/A   Scattered Clouds
2:10 AM 60.8 °F - 60.8 °F 100% 30.08 in 10.0 mi SE 3.5 mph - N/A   Scattered Clouds
2:30 AM 62.6 °F - 62.6 °F 100% 30.08 in 10.0 mi South 5.8 mph - N/A   Scattered Clouds
2:50 AM 62.6 °F - 62.6 °F 100% 30.08 in 10.0 mi SSE 5.8 mph - N/A   Partly Cloudy
3:10 AM 60.8 °F - 60.8 °F 100% 30.08 in 10.0 mi SE 4.6 mph - N/A   Partly Cloudy
3:30 AM 62.6 °F - 60.8 °F 94% 30.08 in 10.0 mi SSE 9.2 mph - N/A   Clear
3:50 AM 62.6 °F - 60.8 °F 94% 30.08 in 10.0 mi South 6.9 mph - N/A   Clear
4:10 AM 62.6 °F - 60.8 °F 94% 30.08 in 10.0 mi SSE 8.1 mph - N/A   Clear
4:30 AM 62.6 °F - 60.8 °F 94% 30.08 in 10.0 mi SE 10.4 mph - N/A   Partly Cloudy
4:50 AM 64.4 °F - 59.0 °F 83% 30.08 in 10.0 mi SSE 10.4 mph 16.1 mph N/A   Partly Cloudy
5:10 AM 62.6 °F - 59.0 °F 88% 30.07 in 10.0 mi SE 10.4 mph - N/A   Scattered Clouds
5:30 AM 64.4 °F - 59.0 °F 83% 30.08 in 10.0 mi SSE 10.4 mph 18.4 mph N/A   Partly Cloudy
5:50 AM 62.6 °F - 59.0 °F 88% 30.08 in 10.0 mi SSE 9.2 mph - N/A   Partly Cloudy
6:10 AM 62.6 °F - 59.0 °F 88% 30.08 in 10.0 mi SSE 10.4 mph - N/A   Partly Cloudy
6:30 AM 62.6 °F - 59.0 °F 88% 30.09 in 10.0 mi South 10.4 mph - N/A   Partly Cloudy
6:50 AM 64.4 °F - 57.2 °F 77% 30.10 in 10.0 mi SSE 11.5 mph - N/A   Clear
7:10 AM 64.4 °F - 59.0 °F 83% 30.10 in 10.0 mi SSE 11.5 mph - N/A   Partly Cloudy
7:30 AM 66.2 °F - 59.0 °F 78% 30.09 in 10.0 mi SSE 10.4 mph - N/A   Partly Cloudy
7:50 AM 68.0 °F - 57.2 °F 68% 30.08 in 10.0 mi SSE 13.8 mph 20.7 mph N/A   Clear
8:10 AM 68.0 °F - 57.2 °F 68% 30.09 in 10.0 mi SSE 12.7 mph - N/A   Clear
8:30 AM 69.8 °F - 57.2 °F 64% 30.07 in 10.0 mi SSE 12.7 mph 19.6 mph N/A   Clear
8:50 AM 71.6 °F - 57.2 °F 60% 30.08 in 10.0 mi SSE 13.8 mph - N/A   Clear
9:10 AM 71.6 °F - 57.2 °F 60% 30.07 in 10.0 mi South 18.4 mph - N/A   Clear
9:30 AM 71.6 °F - 59.0 °F 64% 30.08 in 10.0 mi South 13.8 mph - N/A   Clear
9:50 AM 73.4 °F - 59.0 °F 61% 30.08 in 10.0 mi South 16.1 mph 24.2 mph N/A   Partly Cloudy
10:10 AM 73.4 °F - 59.0 °F 61% 30.07 in 10.0 mi South 17.3 mph - N/A   Scattered Clouds
10:30 AM 73.4 °F - 59.0 °F 61% 30.06 in 10.0 mi South 18.4 mph 23.0 mph N/A   Partly Cloudy
10:50 AM 75.2 °F - 60.8 °F 61% 30.04 in 10.0 mi South 21.9 mph 29.9 mph N/A   Clear
11:10 AM 75.2 °F - 59.0 °F 57% 30.04 in 10.0 mi South 18.4 mph 28.8 mph N/A   Clear
11:30 AM 77.0 °F - 59.0 °F 54% 30.04 in 10.0 mi South 18.4 mph 25.3 mph N/A   Clear
11:50 AM 77.0 °F - 59.0 °F 54% 30.04 in 10.0 mi South 20.7 mph 27.6 mph N/A   Clear
12:10 PM 77.0 °F - 60.8 °F 57% 30.03 in 10.0 mi South 21.9 mph 27.6 mph N/A   Clear
12:30 PM 77.0 °F - 60.8 °F 57% 30.02 in 10.0 mi South 19.6 mph 27.6 mph N/A   Clear
12:50 PM 77.0 °F - 60.8 °F 57% 30.01 in 10.0 mi South 19.6 mph 27.6 mph N/A   Clear
1:10 PM 78.8 °F - 62.6 °F 57% 30.01 in 10.0 mi South 21.9 mph 29.9 mph N/A   Clear
1:30 PM 78.8 °F - 60.8 °F 54% 30.00 in 10.0 mi South 21.9 mph 26.5 mph N/A   Clear
1:50 PM 80.6 °F 81.8 °F 62.6 °F 54% 30.00 in 10.0 mi South 18.4 mph 26.5 mph N/A   Clear
2:10 PM 80.6 °F 81.8 °F 62.6 °F 54% 30.00 in 10.0 mi South 19.6 mph 27.6 mph N/A   Clear
2:30 PM 80.6 °F 82.3 °F 64.4 °F 58% 29.99 in 10.0 mi South 19.6 mph 27.6 mph N/A   Clear
2:50 PM 82.4 °F 83.9 °F 64.4 °F 54% 29.99 in 10.0 mi South 19.6 mph 27.6 mph N/A   Clear
3:10 PM 82.4 °F 83.4 °F 62.6 °F 51% 29.98 in 10.0 mi South 18.4 mph 28.8 mph N/A   Clear
3:30 PM 82.4 °F 83.4 °F 62.6 °F 51% 29.98 in 10.0 mi South 23.0 mph 27.6 mph N/A   Clear
3:50 PM 82.4 °F 83.4 °F 62.6 °F 51% 29.97 in 10.0 mi South 20.7 mph 27.6 mph N/A   Clear
4:10 PM 82.4 °F 83.4 °F 62.6 °F 51% 29.97 in 10.0 mi South 20.7 mph 28.8 mph N/A   Clear
4:30 PM 82.4 °F 83.4 °F 62.6 °F 51% 29.97 in 10.0 mi South 23.0 mph 29.9 mph N/A   Clear
4:50 PM 82.4 °F 83.9 °F 64.4 °F 54% 29.96 in 10.0 mi South 20.7 mph 26.5 mph N/A   Clear
5:10 PM 82.4 °F 83.4 °F 62.6 °F 51% 29.96 in 10.0 mi South 19.6 mph 27.6 mph N/A   Clear
5:30 PM 82.4 °F 83.4 °F 62.6 °F 51% 29.95 in 10.0 mi South 18.4 mph 28.8 mph N/A   Clear
5:50 PM 82.4 °F 83.4 °F 62.6 °F 51% 29.95 in 10.0 mi South 18.4 mph 26.5 mph N/A   Clear
6:10 PM 80.6 °F 81.8 °F 62.6 °F 54% 29.94 in 10.0 mi South 19.6 mph 27.6 mph N/A   Clear
6:30 PM 80.6 °F 81.8 °F 62.6 °F 54% 29.94 in 10.0 mi South 21.9 mph 28.8 mph N/A   Clear
6:50 PM 80.6 °F 81.8 °F 62.6 °F 54% 29.94 in 10.0 mi South 17.3 mph 25.3 mph N/A   Clear
7:10 PM 80.6 °F 81.8 °F 62.6 °F 54% 29.93 in 10.0 mi South 17.3 mph 25.3 mph N/A   Clear
7:30 PM 80.6 °F 82.3 °F 64.4 °F 58% 29.93 in 10.0 mi South 13.8 mph 19.6 mph N/A   Clear
7:50 PM 78.8 °F - 64.4 °F 61% 29.93 in 10.0 mi South 15.0 mph 20.7 mph N/A   Clear
8:10 PM 77.0 °F - 62.6 °F 61% 29.93 in 10.0 mi South 15.0 mph 21.9 mph N/A   Clear
8:30 PM 77.0 °F - 62.6 °F 61% 29.93 in 10.0 mi South 15.0 mph 20.7 mph N/A   Clear
8:50 PM 75.2 °F - 62.6 °F 65% 29.93 in 10.0 mi SSE 15.0 mph 20.7 mph N/A   Clear
9:10 PM 75.2 °F - 62.6 °F 65% 29.93 in 10.0 mi South 16.1 mph 21.9 mph N/A   Clear
9:30 PM 75.2 °F - 62.6 °F 65% 29.93 in 10.0 mi South 15.0 mph 20.7 mph N/A   Clear
9:50 PM 73.4 °F - 62.6 °F 69% 29.94 in 10.0 mi South 13.8 mph - N/A   Clear
10:10 PM 73.4 °F - 62.6 °F 69% 29.94 in 10.0 mi South 15.0 mph 20.7 mph N/A   Clear
10:30 PM 71.6 °F - 64.4 °F 78% 29.95 in 10.0 mi South 11.5 mph 17.3 mph N/A   Clear
10:50 PM 71.6 °F - 64.4 °F 78% 29.96 in 10.0 mi South 12.7 mph - N/A   Clear
11:10 PM 71.6 °F - 64.4 °F 78% 29.96 in 10.0 mi South 11.5 mph 17.3 mph N/A   Clear
11:30 PM 71.6 °F - 64.4 °F 78% 29.96 in 10.0 mi South 13.8 mph 20.7 mph N/A   Clear
11:50 PM 71.6 °F - 64.4 °F 78% 29.95 in 10.0 mi South 15.0 mph - N/A   Clear